Regional Weather Roundup
Issued by NWS

Home | Current Version | Previous Version | Graphics & Text | Print | Product List | Glossary On
Versions: 1 2 3 4 5 6 7 8 9 10 11 12 13 14 15 16 17 18 19 20 21 22 23 24 25 26 27 28 29 30 31 32 33 34 35 36 37 38 39 40 41 42 43 44 45 46 47 48 49 50
000
ASUS43 KLMK 272010
RWRKY
KENTUCKY REGIONAL WEATHER ROUNDUP
NATIONAL WEATHER SERVICE LOUISVILLE KY
400 PM EDT SUN JUL 27 2014

NOTE "FAIR" INDICATES FEW OR NO CLOUDS BELOW 12,000 FEET
WITH NO SIGNIFICANT WEATHER AND/OR OBSTRUCTIONS TO VISIBILITY.

KYZ001>023-026-027-061>063-070>075-272100-
WESTERN AND SOUTH CENTRAL KENTUCKY

CITY           SKY/WX    TMP DP  RH WIND       PRES   REMARKS
PADUCAH        MOSUNNY   93  78  61 W13       29.86F HX 108
HENDERSON      MOSUNNY   90  75  62 W16G22    29.82S HX 100
OWENSBORO      MOSUNNY   91  77  63 W16G22    29.82F HX 104
HOPKINSVILLE   PTSUNNY   92  74  57 W20G25    29.86F HX 102
BOWLING GREEN  PTSUNNY   93  72  50 W17G24    29.82F HX 101
GLASGOW        PTSUNNY   91  72  54 W13G21    29.81F HX  97
$$

KYZ024-025-028>034-038-045-046-053-272100-
NORTH CENTRAL KENTUCKY

CITY           SKY/WX    TMP DP  RH WIND       PRES   REMARKS
LOUISVILLE/SDF MOSUNNY   88  76  67 W18       29.76F HX  99
LOUISVILLE/LOU MOSUNNY   88  77  69 W12       29.77F HX 100
FORT KNOX      MOSUNNY   87  78  74 SW10G20   29.79F HX  98
$$

KYZ035>037-039>044-047>052-055>060-089>105-272100-
NORTHEAST KENTUCKY

CITY           SKY/WX    TMP DP  RH WIND       PRES   REMARKS
LEXINGTON      LGT RAIN  78  74  87 SW7       29.80F
COVINGTON      CLOUDY    73  70  90 SW9       29.76F FOG
FRANKFORT      PTSUNNY   77  75  93 SW9       29.78F
$$

KYZ054-064>069-076>088-106>120-272100-
SOUTHEAST KENTUCKY

CITY           SKY/WX    TMP DP  RH WIND       PRES   REMARKS
JACKSON        TSTM      72  70  93 CALM      29.84F FOG
LONDON         CLOUDY    86  73  65 SW8G17    29.84F HX  93
SOMERSET       PTSUNNY   75  68  78 W8G18     29.87R
MIDDLESBORO    CLOUDY    83  72  69 SW7G21    29.87F
MONTICELLO     MOCLDY    88  77  69 SW14G21   29.83F HX 100
$$



USA.gov is the U.S. government's official web portal to all federal, state and local government web resources and services.